CW5920 Weather Reports


time (UTC)temp
C
wind
direction
speed
KPH
gust
KPH
rain 1hr
cm
rain 24hr
cm
rain mn
cm
humidity
%
barometer
mb
20240613050016 24 135 4.8 6.4 0.00 0.00 0.00 89 1014.5
20240613045017 25 158 4.8 6.4 0.00 0.00 0.00 89 1014.5
20240613044017 25 158 4.8 6.4 0.00 0.00 0.00 88 1014.5
20240613043016 25 158 3.2 6.4 0.00 0.00 0.00 88 1014.4
20240613042017 25 158 3.2 6.4 0.00 0.00 0.00 88 1014.4
20240613041015 25 158 3.2 4.8 0.00 0.00 0.00 88 1014.3
20240613040017 25 158 1.6 3.2 0.00 0.00 0.00 87 1014.3
20240613035015 25 158 1.6 4.8 0.00 0.00 0.00 87 1014.2
20240613034037 25 158 3.2 4.8 0.00 0.00 0.00 86 1014.1
20240613033017 25 158 3.2 4.8 0.00 0.00 0.00 86 1013.9
20240613032017 26 158 3.2 4.8 0.00 0.00 0.00 85 1013.9
20240613031017 26 158 3.2 4.8 0.00 0.00 0.00 84 1013.7
20240613030017 26 158 3.2 6.4 0.00 0.00 0.00 83 1013.7
20240613025017 26 158 4.8 9.7 0.00 0.00 0.00 83 1013.6
20240613024017 26 158 6.4 11.3 0.00 0.00 0.00 82 1013.4
20240613023037 26 158 8.0 12.9 0.00 0.00 0.00 81 1013.3
20240613022017 27 158 6.4 9.7 0.00 0.00 0.00 80 1013.2
20240613021017 27 135 6.4 9.7 0.00 0.00 0.00 80 1013.1
20240613020017 27 158 8.0 11.3 0.00 0.00 0.00 79 1013.0
20240613015138 27 158 9.7 14.5 0.00 0.00 0.00 79 1012.9
20240613014017 27 180 9.7 16.1 0.00 0.00 0.00 78 1012.9
20240613013017 28 158 9.7 14.5 0.00 0.00 0.00 77 1012.9
20240613012016 28 158 11.3 16.1 0.00 0.00 0.00 75 1012.9
20240613011017 28 135 8.0 16.1 0.00 0.00 0.00 73 1012.9
20240613010017 28 135 11.3 16.1 0.00 0.00 0.00 71 1012.8
20240613005017 28 135 8.0 14.5 0.00 0.00 0.00 71 1012.8
20240613004017 29 135 12.9 19.3 0.00 0.00 0.00 71 1012.9
20240613003017 29 135 12.9 17.7 0.00 0.00 0.00 70 1012.8
20240613002017 29 135 11.3 17.7 0.00 0.00 0.00 69 1012.8
20240613001017 30 135 11.3 17.7 0.00 0.00 0.00 69 1012.8
20240613000017 30 135 9.7 16.1 0.00 0.00 0.00 69 1012.8
20240612235037 30 135 9.7 17.7 0.00 0.00 0.00 69 1012.9
20240612234037 30 113 11.3 16.1 0.00 0.00 0.00 69 1012.8
20240612233015 30 113 11.3 17.7 0.00 0.00 0.00 68 1012.8
20240612232017 30 135 12.9 19.3 0.00 0.00 0.00 68 1012.9
20240612231037 30 113 8.0 14.5 0.00 0.00 0.00 64 1012.9
20240612230017 30 113 8.0 12.9 0.00 0.00 0.00 63 1013.0
20240612225017 31 135 9.7 14.5 0.00 0.00 0.00 65 1013.0
20240612224017 31 135 11.3 19.3 0.00 0.00 0.00 67 1013.1
20240612223017 31 113 9.7 14.5 0.00 0.00 0.00 66 1013.3
20240612222017 31 135 6.4 12.9 0.00 0.00 0.00 66 1013.5
20240612221017 31 113 9.7 16.1 0.00 0.00 0.00 67 1013.6
20240612220017 31 135 11.3 16.1 0.00 0.00 0.00 64 1013.6
20240612215017 31 135 8.0 16.1 0.00 0.00 0.00 64 1013.6
20240612214017 31 90 8.0 14.5 0.00 0.00 0.00 64 1013.7
20240612213017 32 135 9.7 16.1 0.00 0.00 0.00 63 1013.8
20240612212017 32 158 8.0 12.9 0.00 0.00 0.00 63 1013.8
20240612211017 32 180 1.6 3.2 0.00 0.00 0.00 57 1013.9
20240612210017 32 225 1.6 8.0 0.00 0.00 0.00 58 1014.0
20240612205017 32 158 1.6 4.8 0.00 0.00 0.00 57 1014.1
20240612204017 33 158 6.4 12.9 0.00 0.00 0.00 58 1014.2
20240612203017 33 158 11.3 14.5 0.00 0.00 0.00 58 1014.3
20240612202017 32 180 1.6 9.7 0.00 0.00 0.00 57 1014.3
20240612201017 32 180 4.8 8.0 0.00 0.00 0.00 57 1014.5
20240612200017 32 203 6.4 12.9 0.00 0.00 0.00 59 1014.6
20240612195017 32 180 8.0 14.5 0.00 0.00 0.00 59 1014.7
20240612194017 32 203 3.2 9.7 0.00 0.03 0.00 59 1014.7
20240612193017 32 158 4.8 11.3 0.00 0.05 0.00 60 1014.9
20240612192017 32 180 4.8 12.9 0.00 0.10 0.00 62 1015.1
20240612191017 32 158 6.4 14.5 0.00 0.20 0.00 61 1015.1
20240612190017 32 135 6.4 16.1 0.00 0.28 0.00 62 1015.2
20240612185017 32 180 6.4 20.9 0.00 0.33 0.00 62 1015.4
20240612184017 31 180 6.4 11.3 0.00 0.33 0.00 63 1015.5
20240612183017 31 135 4.8 9.7 0.00 0.33 0.00 66 1015.7
20240612182057 31 135 8.0 16.1 0.00 0.33 0.00 65 1015.8
20240612181037 31 158 6.4 14.5 0.00 0.36 0.00 65 1015.9
20240612180017 30 158 9.7 17.7 0.00 0.38 0.00 68 1016.0
20240612175017 30 90 4.8 11.3 0.00 0.38 0.00 70 1015.9
20240612174017 29 180 4.8 9.7 0.00 0.41 0.00 72 1016.0
20240612173017 29 203 4.8 9.7 0.00 0.43 0.00 73 1016.0
20240612172017 30 158 9.7 14.5 0.00 0.51 0.00 70 1016.0
20240612171017 30 113 6.4 14.5 0.00 0.53 0.00 68 1016.0
20240612170017 30 135 4.8 11.3 0.00 0.56 0.00 67 1016.1
20240612165017 31 135 4.8 11.3 0.00 0.56 0.00 69 1016.1
20240612164017 30 135 3.2 11.3 0.00 0.56 0.00 67 1016.1
20240612163017 30 180 6.4 11.3 0.00 0.56 0.00 67 1016.2
20240612162017 30 135 8.0 12.9 0.00 0.56 0.00 68 1016.0
20240612161037 30 68 3.2 11.3 0.00 0.56 0.00 69 1016.1
20240612160017 30 158 3.2 6.4 0.00 0.56 0.00 71 1016.1
20240612155017 29 113 6.4 11.3 0.00 0.56 0.00 73 1016.1
20240612154017 28 135 3.2 6.4 0.00 0.56 0.00 74 1016.1
20240612153058 28 135 4.8 8.0 0.00 0.56 0.00 77 1016.1
20240612152017 28 158 6.4 11.3 0.00 0.56 0.00 78 1016.2
20240612151037 27 113 4.8 9.7 0.00 0.56 0.00 78 1016.3
20240612150017 27 113 6.4 12.9 0.00 0.56 0.00 78 1016.2
20240612145017 27 135 4.8 12.9 0.00 0.56 0.00 81 1016.1
20240612144017 27 68 4.8 9.7 0.00 0.56 0.00 80 1016.2
20240612143017 27 135 4.8 9.7 0.00 0.56 0.00 83 1016.2
20240612142017 26 113 3.2 8.0 0.00 0.56 0.00 84 1016.2
20240612141017 26 68 4.8 8.0 0.00 0.56 0.00 84 1016.1
20240612140017 26 90 3.2 6.4 0.00 0.56 0.00 87 1016.0
20240612135017 25 90 4.8 9.7 0.00 0.56 0.00 88 1016.0
20240612134037 25 68 4.8 9.7 0.00 0.56 0.00 89 1015.9
20240612133017 25 68 3.2 8.0 0.00 0.56 0.00 91 1015.8
20240612132017 24 23 1.6 4.8 0.00 0.56 0.00 92 1015.9
20240612131017 24 90 4.8 9.7 0.00 0.56 0.00 93 1015.6
20240612130017 23 68 4.8 8.0 0.00 0.56 0.00 94 1015.5
20240612125017 23 23 3.2 4.8 0.00 0.56 0.00 94 1015.5
20240612124017 23 0 3.2 6.4 0.00 0.56 0.00 95 1015.3
20240612123017 23 0 1.6 4.8 0.00 0.56 0.00 94 1015.2
20240612122017 23 0 3.2 8.0 0.00 0.56 0.00 94 1015.1
20240612121017 23 23 3.2 6.4 0.00 0.56 0.00 95 1015.1
20240612120037 22 23 3.2 6.4 0.00 0.56 0.00 94 1015.0
20240612115017 22 68 1.6 3.2 0.00 0.56 0.00 94 1014.9
20240612114017 22 68 3.2 4.8 0.00 0.56 0.00 94 1014.8
20240612113017 23 68 4.8 9.7 0.00 0.56 0.00 94 1014.7
20240612112017 23 158 1.6 3.2 0.00 0.56 0.00 94 1014.7
20240612111017 23 158 3.2 4.8 0.00 0.56 0.00 93 1014.7
20240612110017 23 113 4.8 6.4 0.00 0.56 0.00 93 1014.8
20240612105017 23 113 3.2 4.8 0.00 0.56 0.00 93 1014.9
20240612104017 23 135 3.2 6.4 0.00 0.56 0.00 93 1014.9
20240612103017 23 0.0 0.0 0.00 0.56 0.00 93 1014.9
20240612102017 23 0.0 0.0 0.00 0.56 0.00 92 1014.9
20240612101037 23 0.0 0.0 0.00 0.56 0.00 92 1014.9
20240612100017 23 0.0 0.0 0.00 0.56 0.00 92 1014.9
20240612095017 23 0.0 0.0 0.00 0.56 0.00 92 1014.8
20240612094017 23 0.0 0.0 0.00 0.56 0.00 92 1014.7
20240612093017 23 0.0 0.0 0.00 0.56 0.00 92 1014.7
20240612092017 23 0.0 0.0 0.00 0.56 0.00 92 1014.6
20240612091017 23 0.0 0.0 0.00 0.56 0.00 92 1014.5
20240612090017 23 0.0 0.0 0.00 0.56 0.00 92 1014.4
20240612085017 23 0.0 0.0 0.00 0.56 0.00 92 1014.5
20240612084016 23 0.0 0.0 0.00 0.56 0.00 92 1014.4
20240612083017 23 0.0 0.0 0.00 0.56 0.00 92 1014.3
20240612082017 23 0.0 0.0 0.00 0.56 0.00 92 1014.3
20240612081037 23 0.0 0.0 0.00 0.56 0.00 92 1014.2
20240612080017 23 0.0 0.0 0.00 0.56 0.00 92 1014.2
20240612075017 23 0.0 0.0 0.00 0.56 0.00 91 1014.4
20240612074017 23 0.0 0.0 0.00 0.56 0.00 91 1014.4
20240612073017 23 0.0 0.0 0.00 0.56 0.00 91 1014.3
20240612072017 23 0.0 0.0 0.00 0.56 0.00 91 1014.3
20240612071017 23 0.0 0.0 0.00 0.56 0.00 91 1014.3
20240612070037 23 0.0 0.0 0.00 0.56 0.00 91 1014.4
20240612065017 23 0.0 0.0 0.00 0.56 0.00 91 1014.3
20240612064037 23 0.0 0.0 0.00 0.56 0.00 91 1014.3
20240612063017 23 0.0 0.0 0.00 0.56 0.00 91 1014.3
20240612062017 23 0.0 0.0 0.00 0.56 0.00 91 1014.3
20240612061017 23 0.0 0.0 0.00 0.56 0.00 91 1014.3
20240612060017 23 0.0 0.0 0.00 0.56 0.00 91 1014.3
20240612055017 23 0.0 0.0 0.00 0.56 0.00 91 1014.4
20240612054017 23 0.0 0.0 0.00 0.56 0.00 91 1014.5
20240612053016 23 0.0 0.0 0.00 0.56 0.00 91 1014.5
20240612052017 23 0.0 0.0 0.00 0.56 0.00 91 1014.6
20240612051017 23 0.0 0.0 0.00 0.56 0.00 91 1014.5